This is the latest recevied weather packets stored in our database for station/object OE6CUD-6. If no packets are shown the sender has not sent any weather packets the latest 10 day(s).
| Time | Temp. | Humidity | Pressure | Rain* | Wind** | Luminosity | Snow |
|---|---|---|---|---|---|---|---|
| 1776919411 | 1.67° C | 97% | 1020.7 hPa | 0 mm | - | 16 W/m² | - |
| 1776919277 | 1.11° C | 97% | 1020.8 hPa | 0 mm | - | 16 W/m² | - |
| 1776913810 | 1.11° C | 96% | 1020.4 hPa | 0 mm | - | 0 W/m² | - |
| 1776912424 | 1.11° C | 96% | 1020.6 hPa | 0 mm | - | 0 W/m² | - |
| 1776911824 | 1.11° C | 96% | 1020.7 hPa | 0 mm | - | 0 W/m² | - |
| 1776910024 | 1.11° C | 96% | 1020.8 hPa | 0 mm | - | 0 W/m² | - |
| 1776909423 | 1.11° C | 95% | 1020.9 hPa | 0 mm | - | 0 W/m² | - |
| 1776905789 | 2.22° C | 93% | 1021 hPa | 0 mm | - | 0 W/m² | - |
| 1776905491 | 2.22° C | 93% | 1021.1 hPa | 0 mm | - | 0 W/m² | - |
| 1776898554 | 3.33° C | 87% | 1020.9 hPa | 0 mm | - | 0 W/m² | - |
| 1776898084 | 3.33° C | 86% | 1020.9 hPa | 0 mm | - | 0 W/m² | - |
| 1776897181 | 3.89° C | 86% | 1020.9 hPa | 0 mm | - | 0 W/m² | - |
| 1776894192 | 4.44° C | 81% | 1020.6 hPa | 0 mm | - | 0 W/m² | - |
| 1776894184 | 4.44° C | 82% | 1020.6 hPa | 0 mm | - | 0 W/m² | - |
| 1776889915 | 5.56° C | 75% | 1020.3 hPa | 0 mm | - | 0 W/m² | - |
| 1776889592 | 6.11° C | 75% | 1020.4 hPa | 0 mm | - | 0 W/m² | - |
| 1776887163 | 6.67° C | 70% | 1020.4 hPa | 0 mm | - | 0 W/m² | - |
| 1776886866 | 7.22° C | 69% | 1020.4 hPa | 0 mm | - | 0 W/m² | - |
| 1776885061 | 8.33° C | 63% | 1020.4 hPa | 0 mm | - | 0 W/m² | - |
| 1776884155 | 8.89° C | 62% | 1020.3 hPa | 0 mm | - | 0 W/m² | - |
| 1776883850 | 9.44° C | 61% | 1020.4 hPa | 0 mm | - | 0 W/m² | - |
| 1776881130 | 11.11° C | 53% | 1020.2 hPa | 0 mm | - | 0 W/m² | - |
| 1776879931 | 12.22° C | 51% | 1020 hPa | 0 mm | - | 7 W/m² | - |
* Rain latest hour (hover to see other rain measurements)
** Current wind speed in m/s (hover to see current wind gust speed)